Location: Alvediston
(51.0078°N, 2.0364°W)
Time: 15:32:39
(UTC+00:00)

Cosmos 1898 Rocket - Pass Details

Date: 27 February 2020
Orbit: 754 x 783 km, 74.0° (Epoch: 07 April)

Event Time Altitude Azimuth Distance (km) Brightness Sun altitude
Rises 18:56:16 0° 334° (NNW) 3,220 7.1 -12.0°
Reaches altitude 10° 18:58:38 10° 334° (NNW) 2,291 6.3 -12.4°
Maximum altitude 19:03:50 83° 247° (WSW) 769 3.6 -13.2°
Drops below altitude 10° 19:09:01 10° 161° (SSE) 2,283 5.7 -14.0°
Sets 19:11:23 0° 160° (SSE) 3,208 6.5 -14.4°
